Location: George Washington National Forest Helicopter Landing Site
(38.6463°N, 79.0851°W)
Time: 01:36:22
(UTC-04:00)

Tiros 1 - Pass Details

Date: 30 August 2019
Orbit: 630 x 664 km, 48.4° (Epoch: 21 September)

Event Time Altitude Azimuth Distance (km) Brightness Sun altitude
Rises 21:11:25 0° 220° (SW) 2,910 10.7 -15.9°
Reaches altitude 10° 21:13:47 10° 215° (SW) 2,002 9.8 -16.3°
Maximum altitude 21:18:14 50° 140° (SE) 798 7.2 -17.1°
Enters shadow 21:20:25 27° 79° (E) 1,204 8.1 -17.5°
